Wetterdaten: Dienstag, 02.03.2010
Datum Zeit Temp. A. Feuchte A. Luftdruck Regen Wind Richtung Richtung Sonnenschein UV Solar Windben
02.03.2010 00:00 3,2 C 80 % 1013,9 hPa 0,0 mm 3,2 km/h (1 Bft) W 270 0 min 0 UV-I 0 W/m 11,3 km/h (2 Bft)
02.03.2010 00:10 3,1 C 80 % 1013,9 hPa 0,0 mm 1,6 km/h (1 Bft) W 270 0 min 0 UV-I 0 W/m 8,0 km/h (2 Bft)
02.03.2010 00:20 2,9 C 80 % 1014,0 hPa 0,0 mm 1,6 km/h (1 Bft) W 270 0 min 0 UV-I 0 W/m 9,7 km/h (2 Bft)
02.03.2010 00:30 2,8 C 81 % 1014,1 hPa 0,0 mm 1,6 km/h (1 Bft) W 270 0 min 0 UV-I 0 W/m 6,4 km/h (2 Bft)
02.03.2010 00:40 2,6 C 81 % 1014,3 hPa 0,0 mm 1,6 km/h (1 Bft) W-SW 247 0 min 0 UV-I 0 W/m 6,4 km/h (2 Bft)
02.03.2010 00:50 2,4 C 81 % 1014,4 hPa 0,0 mm 1,6 km/h (1 Bft) SW 225 0 min 0 UV-I 0 W/m 6,4 km/h (2 Bft)
02.03.2010 01:00 2,3 C 82 % 1014,5 hPa 0,0 mm 1,6 km/h (1 Bft) W-SW 247 0 min 0 UV-I 0 W/m 6,4 km/h (2 Bft)
02.03.2010 01:10 2,2 C 82 % 1014,6 hPa 0,0 mm 1,6 km/h (1 Bft) W-SW 247 0 min 0 UV-I 0 W/m 6,4 km/h (2 Bft)
02.03.2010 01:20 2,0 C 82 % 1014,7 hPa 0,0 mm 1,6 km/h (1 Bft) W-SW 247 0 min 0 UV-I 0 W/m 4,8 km/h (1 Bft)
02.03.2010 01:30 1,9 C 83 % 1014,7 hPa 0,0 mm 1,6 km/h (1 Bft) W-SW 247 0 min 0 UV-I 0 W/m 6,4 km/h (2 Bft)
02.03.2010 01:40 1,8 C 83 % 1014,8 hPa 0,0 mm 1,6 km/h (1 Bft) W-SW 247 0 min 0 UV-I 0 W/m 4,8 km/h (1 Bft)
02.03.2010 01:50 1,6 C 84 % 1015,0 hPa 0,0 mm 1,6 km/h (1 Bft) W-SW 247 0 min 0 UV-I 0 W/m 6,4 km/h (2 Bft)
02.03.2010 02:00 1,5 C 84 % 1015,1 hPa 0,0 mm 1,6 km/h (1 Bft) W-SW 247 0 min 0 UV-I 0 W/m 6,4 km/h (2 Bft)
02.03.2010 02:10 1,4 C 84 % 1015,1 hPa 0,0 mm 1,6 km/h (1 Bft) W 270 0 min 0 UV-I 0 W/m 6,4 km/h (2 Bft)
02.03.2010 02:20 1,4 C 85 % 1015,2 hPa 0,0 mm 1,6 km/h (1 Bft) W 270 0 min 0 UV-I 0 W/m 8,0 km/h (2 Bft)
02.03.2010 02:30 1,5 C 86 % 1015,3 hPa 0,0 mm 3,2 km/h (1 Bft) W-SW 247 0 min 0 UV-I 0 W/m 11,3 km/h (2 Bft)
02.03.2010 02:40 1,6 C 86 % 1015,3 hPa 0,0 mm 1,6 km/h (1 Bft) W 270 0 min 0 UV-I 0 W/m 6,4 km/h (2 Bft)
02.03.2010 02:50 1,7 C 86 % 1015,3 hPa 0,0 mm 3,2 km/h (1 Bft) W-SW 247 0 min 0 UV-I 0 W/m 9,7 km/h (2 Bft)
02.03.2010 03:00 1,7 C 86 % 1015,4 hPa 0,0 mm 3,2 km/h (1 Bft) W-SW 247 0 min 0 UV-I 0 W/m 9,7 km/h (2 Bft)
02.03.2010 03:10 1,7 C 86 % 1015,5 hPa 0,0 mm 4,8 km/h (1 Bft) W-SW 247 0 min 0 UV-I 0 W/m 11,3 km/h (2 Bft)
02.03.2010 03:20 1,6 C 86 % 1015,5 hPa 0,0 mm 3,2 km/h (1 Bft) W-SW 247 0 min 0 UV-I 0 W/m 9,7 km/h (2 Bft)
02.03.2010 03:30 1,6 C 86 % 1015,7 hPa 0,0 mm 3,2 km/h (1 Bft) W 270 0 min 0 UV-I 0 W/m 8,0 km/h (2 Bft)
02.03.2010 03:40 1,6 C 86 % 1015,7 hPa 0,0 mm 1,6 km/h (1 Bft) W-SW 247 0 min 0 UV-I 0 W/m 6,4 km/h (2 Bft)
02.03.2010 03:50 1,5 C 86 % 1015,7 hPa 0,0 mm 1,6 km/h (1 Bft) W-SW 247 0 min 0 UV-I 0 W/m 8,0 km/h (2 Bft)
02.03.2010 04:00 1,5 C 86 % 1015,8 hPa 0,0 mm 3,2 km/h (1 Bft) W-SW 247 0 min 0 UV-I 0 W/m 9,7 km/h (2 Bft)
02.03.2010 04:10 1,4 C 92 % 1015,8 hPa 0,0 mm 3,2 km/h (1 Bft) W-SW 247 0 min 0 UV-I 0 W/m 9,7 km/h (2 Bft)
02.03.2010 04:20 1,4 C 87 % 1016,0 hPa 0,0 mm 3,2 km/h (1 Bft) W-SW 247 0 min 0 UV-I 0 W/m 11,3 km/h (2 Bft)
02.03.2010 04:30 1,4 C 87 % 1016,1 hPa 0,0 mm 4,8 km/h (1 Bft) W-SW 247 0 min 0 UV-I 0 W/m 11,3 km/h (2 Bft)
02.03.2010 04:40 1,4 C 87 % 1016,1 hPa 0,0 mm 3,2 km/h (1 Bft) W-SW 247 0 min 0 UV-I 0 W/m 9,7 km/h (2 Bft)
02.03.2010 04:50 1,4 C 87 % 1016,2 hPa 0,0 mm 3,2 km/h (1 Bft) W-SW 247 0 min 0 UV-I 0 W/m 11,3 km/h (2 Bft)
02.03.2010 05:00 1,4 C 87 % 1016,3 hPa 0,0 mm 4,8 km/h (1 Bft) W-SW 247 0 min 0 UV-I 0 W/m 9,7 km/h (2 Bft)
02.03.2010 05:10 1,4 C 87 % 1016,4 hPa 0,0 mm 4,8 km/h (1 Bft) W-SW 247 0 min 0 UV-I 0 W/m 11,3 km/h (2 Bft)
02.03.2010 05:20 1,3 C 87 % 1016,5 hPa 0,0 mm 3,2 km/h (1 Bft) W-SW 247 0 min 0 UV-I 0 W/m 11,3 km/h (2 Bft)
02.03.2010 05:30 1,3 C 88 % 1016,6 hPa 0,0 mm 3,2 km/h (1 Bft) W-SW 247 0 min 0 UV-I 0 W/m 11,3 km/h (2 Bft)
02.03.2010 05:40 1,3 C 88 % 1016,6 hPa 0,0 mm 3,2 km/h (1 Bft) W-SW 247 0 min 0 UV-I 0 W/m 11,3 km/h (2 Bft)
02.03.2010 05:50 1,3 C 88 % 1016,6 hPa 0,0 mm 3,2 km/h (1 Bft) SW 225 0 min 0 UV-I 0 W/m 11,3 km/h (2 Bft)
02.03.2010 06:00 1,3 C 88 % 1016,7 hPa 0,0 mm 4,8 km/h (1 Bft) W-SW 247 0 min 0 UV-I 0 W/m 9,7 km/h (2 Bft)
02.03.2010 06:10 1,3 C 88 % 1016,7 hPa 0,0 mm 4,8 km/h (1 Bft) W-SW 247 0 min 0 UV-I 0 W/m 9,7 km/h (2 Bft)
02.03.2010 06:20 1,3 C 88 % 1016,7 hPa 0,0 mm 1,6 km/h (1 Bft) W-SW 247 0 min 0 UV-I 0 W/m 9,7 km/h (2 Bft)
02.03.2010 06:30 1,2 C 88 % 1016,7 hPa 0,0 mm 3,2 km/h (1 Bft) W-SW 247 0 min 0 UV-I 0 W/m 9,7 km/h (2 Bft)
02.03.2010 06:40 1,2 C 88 % 1016,8 hPa 0,0 mm 3,2 km/h (1 Bft) W-SW 247 0 min 0 UV-I 0 W/m 9,7 km/h (2 Bft)
02.03.2010 06:50 1,2 C 88 % 1016,9 hPa 0,0 mm 3,2 km/h (1 Bft) W-SW 247 0 min 0 UV-I 0 W/m 14,5 km/h (3 Bft)
02.03.2010 07:00 1,2 C 89 % 1017,0 hPa 0,0 mm 4,8 km/h (1 Bft) W 270 0 min 0 UV-I 0 W/m 11,3 km/h (2 Bft)
02.03.2010 07:10 1,3 C 89 % 1017,1 hPa 0,0 mm 3,2 km/h (1 Bft) W-SW 247 0 min 0 UV-I 0 W/m 16,1 km/h (3 Bft)
02.03.2010 07:20 1,3 C 89 % 1017,1 hPa 0,0 mm 4,8 km/h (1 Bft) W-SW 247 0 min 0 UV-I 0 W/m 11,3 km/h (2 Bft)
02.03.2010 07:30 1,3 C 89 % 1017,3 hPa 0,0 mm 4,8 km/h (1 Bft) W 270 0 min 0 UV-I 7 W/m 17,7 km/h (3 Bft)
02.03.2010 07:40 1,3 C 89 % 1017,4 hPa 0,0 mm 4,8 km/h (1 Bft) W 270 0 min 0 UV-I 7 W/m 16,1 km/h (3 Bft)
02.03.2010 07:50 1,3 C 89 % 1017,6 hPa 0,0 mm 6,4 km/h (2 Bft) W 270 0 min 0 UV-I 12 W/m 16,1 km/h (3 Bft)
02.03.2010 08:00 1,3 C 89 % 1017,7 hPa 0,0 mm 6,1 km/h (2 Bft) S-SW 213 0 min 0 UV-I 9 W/m 11,3 km/h (2 Bft)
02.03.2010 08:10 1,3 C 89 % 1017,9 hPa 0,0 mm 3,2 km/h (1 Bft) W-SW 247 0 min 0 UV-I 33 W/m 11,3 km/h (2 Bft)
02.03.2010 08:20 1,2 C 89 % 1018,1 hPa 0,0 mm 4,8 km/h (1 Bft) W 270 0 min 0 UV-I 16 W/m 17,7 km/h (3 Bft)
02.03.2010 08:30 1,2 C 89 % 1018,2 hPa 0,0 mm 3,2 km/h (1 Bft) W 270 0 min 0 UV-I 35 W/m 11,3 km/h (2 Bft)
02.03.2010 08:40 1,2 C 89 % 1018,3 hPa 0,0 mm 3,2 km/h (1 Bft) W 270 0 min 0 UV-I 56 W/m 9,7 km/h (2 Bft)
02.03.2010 08:50 1,2 C 89 % 1018,5 hPa 0,0 mm 4,8 km/h (1 Bft) SW 225 0 min 0 UV-I 53 W/m 14,5 km/h (3 Bft)
02.03.2010 09:00 1,2 C 89 % 1018,6 hPa 0,0 mm 3,2 km/h (1 Bft) W 270 0 min 0 UV-I 54 W/m 8,0 km/h (2 Bft)
02.03.2010 09:10 1,3 C 90 % 1018,7 hPa 0,0 mm 3,2 km/h (1 Bft) W-SW 247 10 min 0 UV-I 186 W/m 14,5 km/h (3 Bft)
02.03.2010 09:20 1,3 C 89 % 1018,7 hPa 0,0 mm 3,2 km/h (1 Bft) W-SW 247 0 min 1 UV-I 128 W/m 9,7 km/h (2 Bft)
02.03.2010 09:30 1,4 C 89 % 1018,9 hPa 0,0 mm 4,8 km/h (1 Bft) W-SW 247 10 min 1 UV-I 334 W/m 16,1 km/h (3 Bft)
02.03.2010 09:40 1,6 C 88 % 1019,0 hPa 0,0 mm 4,8 km/h (1 Bft) W-SW 247 0 min 1 UV-I 163 W/m 16,1 km/h (3 Bft)
02.03.2010 09:50 1,6 C 87 % 1019,0 hPa 0,0 mm 3,2 km/h (1 Bft) SW 225 10 min 1 UV-I 237 W/m 11,3 km/h (2 Bft)
02.03.2010 10:00 1,6 C 87 % 1019,2 hPa 0,0 mm 4,8 km/h (1 Bft) W 270 0 min 1 UV-I 178 W/m 16,1 km/h (3 Bft)
02.03.2010 10:10 1,5 C 86 % 1019,2 hPa 0,0 mm 4,8 km/h (1 Bft) W 270 10 min 1 UV-I 229 W/m 16,1 km/h (3 Bft)
02.03.2010 10:20 1,6 C 86 % 1019,2 hPa 0,0 mm 3,2 km/h (1 Bft) W 270 10 min 1 UV-I 278 W/m 8,0 km/h (2 Bft)
02.03.2010 10:30 1,7 C 86 % 1019,3 hPa 0,0 mm 3,2 km/h (1 Bft) W 270 10 min 1 UV-I 469 W/m 9,7 km/h (2 Bft)
02.03.2010 10:40 2,3 C 84 % 1019,3 hPa 0,0 mm 4,8 km/h (1 Bft) W-SW 247 10 min 1 UV-I 497 W/m 14,5 km/h (3 Bft)
02.03.2010 10:50 2,7 C 83 % 1019,4 hPa 0,0 mm 3,2 km/h (1 Bft) W 270 10 min 2 UV-I 570 W/m 14,5 km/h (3 Bft)
02.03.2010 11:00 2,8 C 82 % 1019,4 hPa 0,0 mm 3,2 km/h (1 Bft) W 270 10 min 1 UV-I 265 W/m 11,3 km/h (2 Bft)
02.03.2010 11:10 2,8 C 82 % 1019,4 hPa 0,0 mm 4,8 km/h (1 Bft) W 270 10 min 2 UV-I 538 W/m 9,7 km/h (2 Bft)
02.03.2010 11:20 3,3 C 81 % 1019,4 hPa 0,0 mm 3,2 km/h (1 Bft) W 270 10 min 2 UV-I 628 W/m 14,5 km/h (3 Bft)
02.03.2010 11:30 3,8 C 78 % 1019,4 hPa 0,0 mm 6,4 km/h (2 Bft) W 270 10 min 2 UV-I 613 W/m 14,5 km/h (3 Bft)
02.03.2010 11:40 3,9 C 78 % 1019,6 hPa 0,0 mm 4,8 km/h (1 Bft) W 270 10 min 2 UV-I 636 W/m 16,1 km/h (3 Bft)
02.03.2010 11:50 4,4 C 77 % 1019,6 hPa 0,0 mm 6,4 km/h (2 Bft) W-SW 247 10 min 2 UV-I 654 W/m 16,1 km/h (3 Bft)
02.03.2010 12:00 4,4 C 75 % 1019,5 hPa 0,0 mm 6,4 km/h (2 Bft) W 270 10 min 2 UV-I 599 W/m 17,7 km/h (3 Bft)
02.03.2010 12:10 4,7 C 73 % 1019,5 hPa 0,0 mm 6,4 km/h (2 Bft) W 270 10 min 2 UV-I 654 W/m 20,9 km/h (4 Bft)
02.03.2010 12:20 4,8 C 71 % 1019,5 hPa 0,0 mm 6,4 km/h (2 Bft) W 270 10 min 2 UV-I 666 W/m 20,9 km/h (4 Bft)
02.03.2010 12:30 5,1 C 68 % 1019,5 hPa 0,0 mm 8,0 km/h (2 Bft) W 270 10 min 2 UV-I 670 W/m 17,7 km/h (3 Bft)
02.03.2010 12:40 5,2 C 66 % 1019,4 hPa 0,0 mm 6,4 km/h (2 Bft) W-NW 292 10 min 2 UV-I 717 W/m 17,7 km/h (3 Bft)
02.03.2010 12:50 5,6 C 64 % 1019,4 hPa 0,0 mm 8,0 km/h (2 Bft) W-SW 247 10 min 2 UV-I 735 W/m 17,7 km/h (3 Bft)
02.03.2010 13:00 5,2 C 63 % 1019,3 hPa 0,0 mm 8,0 km/h (2 Bft) W 270 0 min 2 UV-I 255 W/m 25,7 km/h (4 Bft)
02.03.2010 13:10 5,3 C 60 % 1019,3 hPa 0,0 mm 8,0 km/h (2 Bft) W 270 10 min 2 UV-I 687 W/m 20,9 km/h (4 Bft)
02.03.2010 13:20 5,4 C 63 % 1019,3 hPa 0,0 mm 6,4 km/h (2 Bft) W 270 0 min 1 UV-I 258 W/m 19,3 km/h (3 Bft)
02.03.2010 13:30 5,3 C 61 % 1019,3 hPa 0,0 mm 6,4 km/h (2 Bft) W-NW 292 10 min 2 UV-I 696 W/m 19,3 km/h (3 Bft)
02.03.2010 13:40 5,4 C 60 % 1019,4 hPa 0,0 mm 6,4 km/h (2 Bft) W-NW 292 0 min 1 UV-I 171 W/m 20,9 km/h (4 Bft)
02.03.2010 13:50 5,3 C 61 % 1019,4 hPa 0,0 mm 4,8 km/h (1 Bft) W-NW 292 0 min 2 UV-I 162 W/m 17,7 km/h (3 Bft)
02.03.2010 14:00 5,7 C 59 % 1019,4 hPa 0,0 mm 8,0 km/h (2 Bft) W 270 10 min 2 UV-I 635 W/m 20,9 km/h (4 Bft)
02.03.2010 14:10 6,4 C 56 % 1019,4 hPa 0,0 mm 9,7 km/h (2 Bft) W 270 10 min 2 UV-I 737 W/m 27,4 km/h (4 Bft)
02.03.2010 14:20 6,9 C 54 % 1019,4 hPa 0,0 mm 11,3 km/h (2 Bft) W-SW 247 10 min 2 UV-I 696 W/m 32,2 km/h (5 Bft)
02.03.2010 14:30 6,3 C 57 % 1019,5 hPa 0,0 mm 11,3 km/h (2 Bft) W 270 0 min 1 UV-I 171 W/m 24,1 km/h (4 Bft)
02.03.2010 14:40 5,8 C 58 % 1019,6 hPa 0,0 mm 8,0 km/h (2 Bft) W 270 0 min 1 UV-I 186 W/m 24,1 km/h (4 Bft)
02.03.2010 14:50 6,1 C 56 % 1019,7 hPa 0,0 mm 11,3 km/h (2 Bft) W 270 10 min 1 UV-I 619 W/m 25,7 km/h (4 Bft)
02.03.2010 15:00 6,1 C 57 % 1019,6 hPa 0,0 mm 11,3 km/h (2 Bft) W 270 10 min 1 UV-I 520 W/m 22,5 km/h (4 Bft)
02.03.2010 15:10 6,0 C 58 % 1019,7 hPa 0,0 mm 8,0 km/h (2 Bft) W 270 0 min 1 UV-I 169 W/m 22,5 km/h (4 Bft)
02.03.2010 15:20 5,8 C 60 % 1019,7 hPa 0,0 mm 6,4 km/h (2 Bft) W 270 10 min 1 UV-I 401 W/m 16,1 km/h (3 Bft)
02.03.2010 15:30 5,7 C 63 % 1019,7 hPa 0,0 mm 6,4 km/h (2 Bft) W 270 0 min 1 UV-I 178 W/m 19,3 km/h (3 Bft)
02.03.2010 15:40 5,7 C 64 % 1019,7 hPa 0,0 mm 6,4 km/h (2 Bft) W-SW 247 10 min 1 UV-I 213 W/m 19,3 km/h (3 Bft)
02.03.2010 15:50 5,7 C 66 % 1019,6 hPa 0,0 mm 4,8 km/h (1 Bft) W-SW 247 10 min 1 UV-I 176 W/m 16,1 km/h (3 Bft)
02.03.2010 16:00 5,5 C 67 % 1019,6 hPa 0,0 mm 4,2 km/h (1 Bft) W 259 0 min 1 UV-I 67 W/m 11,3 km/h (2 Bft)
02.03.2010 16:10 5,4 C 67 % 1019,7 hPa 0,0 mm 6,4 km/h (2 Bft) W-SW 247 0 min 1 UV-I 67 W/m 17,7 km/h (3 Bft)
02.03.2010 16:20 5,2 C 68 % 1019,6 hPa 0,0 mm 4,8 km/h (1 Bft) W-SW 247 0 min 0 UV-I 65 W/m 14,5 km/h (3 Bft)
02.03.2010 16:30 5,2 C 69 % 1019,6 hPa 0,0 mm 4,8 km/h (1 Bft) SW 225 0 min 0 UV-I 62 W/m 17,7 km/h (3 Bft)
02.03.2010 16:40 5,2 C 69 % 1019,6 hPa 0,0 mm 8,0 km/h (2 Bft) W 270 0 min 0 UV-I 54 W/m 22,5 km/h (4 Bft)
02.03.2010 16:50 4,9 C 72 % 1019,8 hPa 0,0 mm 6,4 km/h (2 Bft) W-SW 247 10 min 0 UV-I 148 W/m 20,9 km/h (4 Bft)
02.03.2010 17:00 4,6 C 73 % 1019,8 hPa 0,0 mm 3,2 km/h (1 Bft) W 270 0 min 0 UV-I 81 W/m 14,5 km/h (3 Bft)
02.03.2010 17:10 4,3 C 74 % 1019,9 hPa 0,0 mm 3,2 km/h (1 Bft) W-SW 247 0 min 0 UV-I 44 W/m 8,0 km/h (2 Bft)
02.03.2010 17:20 4,1 C 76 % 1020,0 hPa 0,0 mm 1,6 km/h (1 Bft) W-SW 247 0 min 0 UV-I 30 W/m 9,7 km/h (2 Bft)
02.03.2010 17:30 3,9 C 78 % 1020,1 hPa 0,0 mm 1,6 km/h (1 Bft) SW 225 10 min 0 UV-I 53 W/m 8,0 km/h (2 Bft)
02.03.2010 17:40 3,7 C 77 % 1020,1 hPa 0,0 mm 4,8 km/h (1 Bft) W-SW 247 0 min 0 UV-I 30 W/m 12,9 km/h (3 Bft)
02.03.2010 17:50 3,6 C 76 % 1020,4 hPa 0,0 mm 6,4 km/h (2 Bft) W-SW 247 10 min 0 UV-I 23 W/m 17,7 km/h (3 Bft)
02.03.2010 18:00 3,3 C 78 % 1020,5 hPa 0,0 mm 4,8 km/h (1 Bft) W-SW 247 0 min 0 UV-I 12 W/m 16,1 km/h (3 Bft)
02.03.2010 18:10 3,0 C 79 % 1020,8 hPa 0,0 mm 4,8 km/h (1 Bft) W-SW 247 0 min 0 UV-I 5 W/m 11,3 km/h (2 Bft)
02.03.2010 18:20 2,8 C 80 % 1020,9 hPa 0,0 mm 3,2 km/h (1 Bft) W-SW 247 0 min 0 UV-I 0 W/m 9,7 km/h (2 Bft)
02.03.2010 18:30 2,6 C 80 % 1021,0 hPa 0,0 mm 3,2 km/h (1 Bft) W-SW 247 0 min 0 UV-I 0 W/m 9,7 km/h (2 Bft)
02.03.2010 18:40 2,4 C 81 % 1021,1 hPa 0,0 mm 3,2 km/h (1 Bft) W-SW 247 0 min 0 UV-I 0 W/m 9,7 km/h (2 Bft)
02.03.2010 18:50 2,2 C 82 % 1021,3 hPa 0,0 mm 1,6 km/h (1 Bft) W-SW 247 0 min 0 UV-I 0 W/m 6,4 km/h (2 Bft)
02.03.2010 19:00 2,0 C 82 % 1021,4 hPa 0,0 mm 0,0 km/h (0 Bft) S-SW 202 0 min 0 UV-I 0 W/m 6,4 km/h (2 Bft)
02.03.2010 19:10 1,8 C 83 % 1021,5 hPa 0,0 mm 1,6 km/h (1 Bft) SW 225 0 min 0 UV-I 0 W/m 6,4 km/h (2 Bft)
02.03.2010 19:20 1,7 C 84 % 1021,7 hPa 0,0 mm 0,0 km/h (0 Bft) SW 225 0 min 0 UV-I 0 W/m 4,8 km/h (1 Bft)
02.03.2010 19:30 1,6 C 85 % 1021,7 hPa 0,0 mm 1,6 km/h (1 Bft) W-SW 247 0 min 0 UV-I 0 W/m 4,8 km/h (1 Bft)
02.03.2010 19:40 1,4 C 86 % 1021,7 hPa 0,0 mm 1,6 km/h (1 Bft) W-SW 247 0 min 0 UV-I 0 W/m 4,8 km/h (1 Bft)
02.03.2010 19:50 1,4 C 86 % 1021,8 hPa 0,0 mm 3,2 km/h (1 Bft) W-SW 247 0 min 0 UV-I 0 W/m 11,3 km/h (2 Bft)
02.03.2010 20:00 1,5 C 86 % 1021,8 hPa 0,0 mm 3,2 km/h (1 Bft) W-SW 247 0 min 0 UV-I 0 W/m 9,7 km/h (2 Bft)
02.03.2010 20:10 1,6 C 85 % 1022,0 hPa 0,0 mm 1,6 km/h (1 Bft) W-SW 247 0 min 0 UV-I 0 W/m 8,0 km/h (2 Bft)
02.03.2010 20:20 1,5 C 85 % 1022,1 hPa 0,0 mm 3,2 km/h (1 Bft) W-SW 247 0 min 0 UV-I 0 W/m 8,0 km/h (2 Bft)
02.03.2010 20:30 1,5 C 86 % 1022,2 hPa 0,0 mm 3,2 km/h (1 Bft) W-SW 247 0 min 0 UV-I 0 W/m 11,3 km/h (2 Bft)
02.03.2010 20:40 1,6 C 86 % 1022,2 hPa 0,0 mm 3,2 km/h (1 Bft) W-SW 247 0 min 0 UV-I 0 W/m 9,7 km/h (2 Bft)
02.03.2010 20:50 1,6 C 86 % 1022,2 hPa 0,0 mm 3,2 km/h (1 Bft) W-SW 247 0 min 0 UV-I 0 W/m 9,7 km/h (2 Bft)
02.03.2010 21:00 1,5 C 86 % 1022,2 hPa 0,0 mm 3,2 km/h (1 Bft) W-SW 247 0 min 0 UV-I 0 W/m 9,7 km/h (2 Bft)
02.03.2010 21:10 1,3 C 87 % 1022,4 hPa 0,0 mm 1,6 km/h (1 Bft) W-SW 247 0 min 0 UV-I 0 W/m 6,4 km/h (2 Bft)
02.03.2010 21:20 1,3 C 87 % 1022,5 hPa 0,0 mm 0,0 km/h (0 Bft) W-SW 247 0 min 0 UV-I 0 W/m 3,2 km/h (1 Bft)
02.03.2010 21:30 1,0 C 87 % 1022,5 hPa 0,0 mm 1,6 km/h (1 Bft) W-SW 247 0 min 0 UV-I 0 W/m 4,8 km/h (1 Bft)
02.03.2010 21:40 0,9 C 88 % 1022,7 hPa 0,0 mm 1,6 km/h (1 Bft) W-SW 247 0 min 0 UV-I 0 W/m 4,8 km/h (1 Bft)
02.03.2010 21:50 0,9 C 88 % 1022,7 hPa 0,0 mm 3,2 km/h (1 Bft) W-SW 247 0 min 0 UV-I 0 W/m 8,0 km/h (2 Bft)
02.03.2010 22:00 0,9 C 88 % 1022,8 hPa 0,0 mm 3,2 km/h (1 Bft) W-SW 247 0 min 0 UV-I 0 W/m 9,7 km/h (2 Bft)
02.03.2010 22:10 0,9 C 88 % 1022,8 hPa 0,0 mm 3,2 km/h (1 Bft) W-SW 247 0 min 0 UV-I 0 W/m 9,7 km/h (2 Bft)
02.03.2010 22:20 0,9 C 88 % 1022,9 hPa 0,0 mm 4,8 km/h (1 Bft) W-SW 247 0 min 0 UV-I 0 W/m 11,3 km/h (2 Bft)
02.03.2010 22:30 0,8 C 88 % 1022,9 hPa 0,0 mm 4,8 km/h (1 Bft) W-SW 247 0 min 0 UV-I 0 W/m 11,3 km/h (2 Bft)
02.03.2010 22:40 0,8 C 88 % 1023,0 hPa 0,0 mm 4,8 km/h (1 Bft) W-SW 247 0 min 0 UV-I 0 W/m 16,1 km/h (3 Bft)
02.03.2010 22:50 0,8 C 87 % 1023,0 hPa 0,0 mm 3,2 km/h (1 Bft) W-SW 247 0 min 0 UV-I 0 W/m 9,7 km/h (2 Bft)
02.03.2010 23:00 0,8 C 87 % 1023,0 hPa 0,0 mm 3,2 km/h (1 Bft) W-SW 247 0 min 0 UV-I 0 W/m 14,5 km/h (3 Bft)
02.03.2010 23:10 0,8 C 87 % 1022,9 hPa 0,0 mm 1,6 km/h (1 Bft) W-SW 247 0 min 0 UV-I 0 W/m 8,0 km/h (2 Bft)
02.03.2010 23:20 0,7 C 86 % 1022,9 hPa 0,0 mm 1,6 km/h (1 Bft) W-SW 247 0 min 0 UV-I 0 W/m 6,4 km/h (2 Bft)
02.03.2010 23:30 0,6 C 86 % 1023,0 hPa 0,0 mm 1,6 km/h (1 Bft) W-SW 247 0 min 0 UV-I 0 W/m 4,8 km/h (1 Bft)
02.03.2010 23:40 0,5 C 86 % 1022,9 hPa 0,0 mm 1,6 km/h (1 Bft) W-SW 247 0 min 0 UV-I 0 W/m 4,8 km/h (1 Bft)
02.03.2010 23:50 0,4 C 86 % 1023,0 hPa 0,0 mm 3,2 km/h (1 Bft) W-SW 247 0 min 0 UV-I 0 W/m 6,4 km/h (2 Bft)
_ Min-Zeit 23:40 14:20 00:00 - 19:00 - - - - - 21:20
Minimum _ 0,4 C 54 % 1013,9 hPa - 0,0 km/h (0 Bft) - - - - - 3,2 km/h (1 Bft)
_ Max-Zeit 14:20 04:10 22:40 00:00 14:20 - - 09:10 12:20 14:10 14:20
Maximum _ 6,9 C 92 % 1023,0 hPa 0,0 mm 11,3 km/h
W-SW (2 Bft)
- - 10 min 2 UV-I 737 W/m 32,2 km/h
W (5 Bft)
Durchschnitt _ 2,6 C 81 % 1018,9 hPa #0,0 mm 4,0 km/h (1 Bft) W-SW - #5:30 h 1 UV-I 286 W/m 12,3 km/h (3 Bft)